TURKSAT 6A

Last updated on Wed Oct 29 2025 00:02:51 GMT+0000 (Coordinated Universal Time)

1 60233U 24127A 25301.55178971 .00000156 00000+0 00000+0 0 9994 2 60233 0.0359 169.2508 0005121 50.8097 57.7444 1.00273780 4690
UTC large
Height (km)
Speed (km/s)
/
Latitude / Longitude
Inclination (degrees)
Orbital Period (minutes)
Azimuth
Elevation
Range (km)
Doppler Factor

Next 0 passes for location: London (51.5072 / 0.1276)

Sorry there are no passes over London.